Location: Unspecified
(54.1780°N, 0.0000°E)
Time: 00:29:55
(UTC+00:00)

Tiros 1 - Pass Details

Date: 24 June 2019
Orbit: 630 x 664 km, 48.4° (Epoch: 19 July)

Event Time Altitude Azimuth Distance (km) Brightness Sun altitude
Rises 01:56:39 0° 262° (W) 2,941 10.2 -8.6°
Reaches altitude 10° 01:59:05 10° 255° (WSW) 2,026 9.3 -8.4°
Maximum altitude 02:03:26 40° 187° (S) 940 7.6 -8.1°
Drops below altitude 10° 02:07:45 10° 118° (ESE) 2,011 9.7 -7.8°
Sets 02:10:09 0° 111° (ESE) 2,916 10.6 -7.7°
